Location: Taukkyan
(23.1052°N, 94.0030°E)
Time: 11:30:42
(UTC+00:00)

ARGOS - Pass Details

Date: 06 July 2020
Orbit: 819 x 835 km, 98.5° (Epoch: 14 August)

Event Time Altitude Azimuth Distance (km) Brightness Sun altitude
Exits shadow 13:37:44 - 172° (S) 2,874 5.6 -13.7°
Reaches altitude 10° 13:38:51 10° 173° (S) 2,434 5.2 -14.0°
Maximum altitude 13:44:14 73° 258° (WSW) 870 3.4 -15.0°
Drops below altitude 10° 13:49:39 10° 343° (NNW) 2,445 6.4 -16.0°
Sets 13:52:01 0° 345° (NNW) 3,381 7.1 -16.5°
